Location: Del Amo
(33.8464°N, 118.2104°W)
Time: 20:01:11
(UTC+00:00)

S-56A Canister/Altair - Pass Details

Date: 14 September 2024
Orbit: 636 x 2487 km, 38.9° (Epoch: 14 October)

Event Time Altitude Azimuth Distance (km) Brightness Sun altitude
Rises 04:23:31 0° 274° (W) 3,530 11.9 -29.2°
Reaches altitude 10° 04:25:44 10° 278° (W) 2,763 11.2 -29.6°
Maximum altitude 04:32:26 63° 359° (N) 1,448 8.8 -30.9°
Enters shadow 04:35:08 45° 56° (NE) 1,876 9.2 -31.3°
Drops below altitude 10° 04:42:46 10° 79° (E) 4,156 - -32.7°
Sets 04:46:52 0° 82° (E) 5,431 - -33.5°
